Location: Gebenbach
(49.5378°N, 11.8735°E)
Time: 03:05:07
(UTC+00:00)

Cosmos 2184 Rocket - Pass Details

Date: 29 October 2020
Orbit: 960 x 1001 km, 82.9° (Epoch: 27 November)

Event Time Altitude Azimuth Distance (km) Brightness Sun altitude
Rises 18:32:41 0° 352° (N) 3,705 7.2 -26.0°
Reaches altitude 10° 18:35:16 10° 357° (N) 2,758 6.5 -26.4°
Enters shadow 18:40:25 51° 39° (NE) 1,239 4.3 -27.3°
